Date String (YYYY-MM-DD hh:mm:ss) UTC,Instrument flags,Ambient pressure (hPa),Sample flow (lpm),Bypass flow (lpm),Sample temperature (°C),Ambient temperature (°C),ASC tube jacket temperature (°C),LED temperature (°C),Box temperature (°C),Sample RH (%),Span deviation,Mass concentration (μg/m³),Mass concentration (μg/m³),Mass concentration (μg/m³)
DateTimeUTC,F1_M11,P_M11,Q1_M11,Q2_M11,T1_M11,T2_M11,T3_M11,T4_M11,T5_M11,U1_M11,ZSPAN_M11,X2_M11,X0_M11,X1_M11
2021-10-11 22:00:00,,0816.1,4.99,0.00,29.8,28.9,00.0,38.8,31.7,10.5,0000.0,0003.69,0012.59,0003.03
2021-10-11 22:01:00,,0816.1,5.00,0.00,29.9,29.0,00.0,38.8,31.7,10.5,0000.0,0003.70,0012.82,0003.04
2021-10-11 22:02:00,,0816.1,5.01,0.00,29.9,29.1,00.0,38.8,31.8,10.4,0000.0,0003.75,0012.66,0003.05
2021-10-11 22:03:00,,0816.1,4.99,0.00,29.9,29.1,00.0,38.9,31.7,10.4,0000.0,0003.77,0012.96,0003.08
2021-10-11 22:04:00,,0816.1,5.00,0.00,30.0,29.2,00.0,38.9,31.8,10.4,0000.0,0003.75,0012.45,0003.08
2021-10-11 22:05:00,,0816.0,4.99,0.00,30.0,28.8,00.0,38.9,31.7,10.4,0000.0,0003.76,0012.35,0003.08
2021-10-11 22:06:00,,0816.0,5.00,0.00,29.9,27.0,00.0,38.9,31.2,10.5,0000.0,0003.75,0012.10,0003.09
2021-10-11 22:07:00,,0816.0,5.00,0.00,29.8,26.6,00.0,38.9,31.1,10.6,0000.0,0003.74,0010.82,0003.10
2021-10-11 22:08:00,,0816.0,5.00,0.00,29.7,26.9,00.0,38.8,31.2,10.6,0000.0,0003.78,0010.71,0003.11
2021-10-11 22:09:00,,0816.0,5.00,0.00,29.7,27.3,00.0,38.8,31.3,10.6,0000.0,0003.81,0011.00,0003.12
2021-10-11 22:10:00,,0816.0,5.00,0.00,29.7,27.6,00.0,38.8,31.3,10.7,0000.0,0003.82,0010.68,0003.11
2021-10-11 22:11:00,,0815.9,5.00,0.00,29.7,27.9,00.0,38.8,31.4,10.7,0000.0,0003.86,0010.82,0003.12
2021-10-11 22:12:00,,0816.0,4.99,0.00,29.7,28.2,00.0,38.8,31.5,10.7,0000.0,0003.87,0010.44,0003.12
2021-10-11 22:13:00,,0816.0,5.01,0.00,29.8,28.4,00.0,38.8,31.5,10.8,0000.0,0003.80,0010.59,0003.11
2021-10-11 22:14:00,,0816.0,5.01,0.00,29.8,28.5,00.0,38.8,31.6,11.0,0000.0,0003.76,0010.93,0003.09
2021-10-11 22:15:00,,0816.0,5.00,0.00,29.8,28.7,00.0,38.8,31.7,11.1,0000.0,0003.75,0011.18,0003.09
2021-10-11 22:16:00,,0816.0,4.99,0.00,29.9,28.8,00.0,38.8,31.7,11.2,0000.0,0003.74,0011.54,0003.10
2021-10-11 22:17:00,,0816.0,5.00,0.00,29.9,28.9,00.0,38.8,31.8,11.0,0000.0,0003.77,0011.73,0003.11
2021-10-11 22:18:00,,0816.1,5.01,0.00,29.9,29.0,00.0,38.9,31.8,11.0,0000.0,0003.79,0012.62,0003.12
2021-10-11 22:19:00,,0816.0,4.99,0.00,30.0,29.0,00.0,38.9,31.8,10.7,0000.0,0003.77,0012.64,0003.12
2021-10-11 22:20:00,,0816.0,5.01,0.00,30.0,29.1,00.0,38.9,31.9,10.7,0000.0,0003.77,0011.83,0003.13
2021-10-11 22:21:00,,0815.9,5.01,0.00,30.0,29.1,00.0,38.9,31.9,10.6,0000.0,0003.86,0011.91,0003.14
2021-10-11 22:22:00,,0815.9,5.01,0.00,30.0,27.9,00.0,38.9,31.5,10.6,0000.0,0003.86,0011.81,0003.14
2021-10-11 22:23:00,,0815.9,5.00,0.00,29.8,25.8,00.0,38.9,30.9,10.6,0000.0,0003.84,0011.84,0003.15
2021-10-11 22:24:00,,0815.9,4.99,0.00,29.6,25.5,00.0,38.8,30.8,10.9,0000.0,0003.86,0013.26,0003.15
2021-10-11 22:25:00,,0815.9,5.00,0.00,29.5,26.0,00.0,38.8,30.9,10.9,0000.0,0003.93,0013.56,0003.16
2021-10-11 22:26:00,,0815.9,5.00,0.00,29.5,26.5,00.0,38.7,31.0,10.9,0000.0,0003.96,0013.13,0003.16
2021-10-11 22:27:00,,0815.9,5.00,0.00,29.5,27.0,00.0,38.7,31.1,11.0,0000.0,0003.96,0014.08,0003.16
2021-10-11 22:28:00,,0815.8,5.01,0.00,29.5,27.3,00.0,38.7,31.2,11.1,0000.0,0003.93,0013.94,0003.15
2021-10-11 22:29:00,,0815.8,5.01,0.00,29.5,27.6,00.0,38.7,31.3,11.0,0000.0,0003.91,0013.16,0003.15
2021-10-11 22:30:00,,0815.8,5.00,0.00,29.5,27.9,00.0,38.6,31.3,11.0,0000.0,0003.91,0012.84,0003.14
2021-10-11 22:31:00,,0815.8,4.99,0.00,29.6,28.1,00.0,38.6,31.4,10.9,0000.0,0003.88,0012.81,0003.13
2021-10-11 22:32:00,,0815.8,5.01,0.00,29.6,28.3,00.0,38.6,31.4,10.9,0000.0,0003.80,0012.66,0003.11
2021-10-11 22:33:00,,0815.8,5.01,0.00,29.6,28.4,00.0,38.7,31.5,10.8,0000.0,0003.76,0012.52,0003.09
2021-10-11 22:34:00,,0815.9,4.99,0.00,29.7,28.5,00.0,38.7,31.5,11.0,0000.0,0003.74,0012.20,0003.07
2021-10-11 22:35:00,,0815.9,5.01,0.00,29.7,28.6,00.0,38.7,31.5,10.9,0000.0,0003.78,0010.70,0003.06
2021-10-11 22:36:00,,0815.9,5.00,0.00,29.7,28.7,00.0,38.7,31.6,10.8,0000.0,0003.75,0010.61,0003.07
2021-10-11 22:37:00,,0815.9,4.99,0.00,29.8,28.8,00.0,38.7,31.6,10.9,0000.0,0003.74,0010.59,0003.08
2021-10-11 22:38:00,,0815.9,5.00,0.00,29.8,28.9,00.0,38.7,31.6,10.8,0000.0,0003.75,0009.50,0003.08
2021-10-11 22:39:00,,0815.9,5.03,0.00,29.8,28.9,00.0,38.8,31.7,10.7,0000.0,0003.73,0008.99,0003.07
2021-10-11 22:40:00,,0815.9,5.00,0.00,29.9,29.0,00.0,38.8,31.7,10.7,0000.0,0003.74,0009.26,0003.07
2021-10-11 22:41:00,,0815.9,5.00,0.00,29.9,29.1,00.0,38.8,31.7,10.7,0000.0,0003.74,0010.88,0003.05
2021-10-11 22:42:00,,0815.8,4.99,0.00,29.9,29.1,00.0,38.8,31.8,10.7,0000.0,0003.71,0010.90,0003.03
2021-10-11 22:43:00,,0815.8,4.99,0.00,30.0,29.2,00.0,38.8,31.9,10.9,0000.0,0003.72,0010.97,0003.03
2021-10-11 22:44:00,,0815.8,5.00,0.00,30.0,29.2,00.0,38.9,31.9,10.8,0000.0,0003.70,0012.17,0003.04
2021-10-11 22:45:00,,0815.9,5.00,0.00,30.0,27.8,00.0,38.9,31.5,10.7,0000.0,0003.74,0012.51,0003.06
2021-10-11 22:46:00,,0815.8,5.00,0.00,29.8,26.5,00.0,38.9,31.1,10.8,0000.0,0003.69,0013.37,0003.07
2021-10-11 22:47:00,,0815.8,5.00,0.00,29.7,26.6,00.0,38.8,31.1,10.8,0000.0,0003.67,0013.10,0003.06
2021-10-11 22:48:00,,0815.8,5.01,0.00,29.6,27.0,00.0,38.8,31.2,10.8,0000.0,0003.66,0013.04,0003.03
2021-10-11 22:49:00,,0815.8,4.99,0.00,29.6,27.4,00.0,38.8,31.3,11.0,0000.0,0003.70,0013.40,0003.03
2021-10-11 22:50:00,,0815.9,4.99,0.00,29.7,27.7,00.0,38.8,31.4,11.1,0000.0,0003.73,0013.98,0003.02
2021-10-11 22:51:00,,0815.9,5.00,0.00,29.7,28.0,00.0,38.7,31.4,11.0,0000.0,0003.77,0014.84,0003.01
2021-10-11 22:52:00,,0815.9,5.01,0.00,29.7,28.2,00.0,38.7,31.5,10.8,0000.0,0003.79,0014.03,0003.00
2021-10-11 22:53:00,,0815.9,5.01,0.00,29.7,28.4,00.0,38.7,31.5,10.8,0000.0,0003.83,0014.67,0003.00
2021-10-11 22:54:00,,0815.8,5.00,0.00,29.8,28.5,00.0,38.8,31.6,10.7,0000.0,0003.85,0015.41,0003.00
2021-10-11 22:55:00,,0815.8,4.99,0.00,29.8,28.6,00.0,38.8,31.6,10.7,0000.0,0003.85,0015.14,0002.98
2021-10-11 22:56:00,,0815.8,5.01,0.00,29.8,28.8,00.0,38.8,31.7,10.8,0000.0,0003.81,0015.99,0002.96
2021-10-11 22:57:00,,0815.8,5.00,0.00,29.9,28.8,00.0,38.8,31.7,10.6,0000.0,0003.82,0015.20,0002.95
2021-10-11 22:58:00,,0815.8,5.00,0.00,29.9,28.9,00.0,38.8,31.7,10.7,0000.0,0003.84,0015.18,0002.94
2021-10-11 22:59:00,,0815.8,5.00,0.00,29.9,29.0,00.0,38.8,31.8,10.8,0000.0,0003.82,0015.47,0002.94
